"Pseudo-MPEC" for X81786

Created 2023 Mar 23 0:22:17 UT using Find_Orb

Click here for an explanation of pseudo-MPECs

 
 Astrometry: 
     X81786 * C2023 03 02:(R)/FQEIvX%PooAstrometry1:8$4rredacted;`mscP%^clickD29
     X81786   C2023 03 02b?fo#hereuoT@Pxw[GFF;_JqMBWfort^explanationQ]iVA+P-SD29
     X81786   C2023 03 02\oag8TdsU1?pJChweyq#PTlaOR76RDr+NiC\Tp7?i-i2OfQO]UYkD29

Station data:
(D29) Purple Mountain Observatory, XuYi Station  (N32.734363 E118.463900)
   China.  Observers H. B. Zhao, B. Li, G. Zhaori, R. Q. Hong, L. F. Hu.
   Measurers H. B. Zhao, B. Li. H. Lu, G. Zhaori. 1.04-m f/1.8 Schmidt + CCD.

Orbital elements:  X81786
   Perihelion 2024 Feb 29.20792 +/- 137 TT =  4:59:24 (JD 2460369.70792)
Epoch 2023 Mar  3.0 TT = JDT 2460006.5                           AutoNEOCP
M 264.30086567 +/- 100              (J2000 ecliptic)
n   0.26348306 +/- 0.564            Peri.  302.41166 +/- 80
a   2.40972554 +/- 3.44             Node   260.67016 +/- 27
e   0.1307987 +/- 0.22              Incl.   36.43707 +/- 52
P   3.74                   H 15.79  G  0.15   U 12.4  SR
q 2.09453638 +/- 0.845    Q 2.72491470 +/- 26.7
From 3 observations 2023 Mar. 2 (40.7 min); mean residual 0".08
Residuals in arcseconds: 
230302 D29  .08-  .03+    230302 D29  .15+  .07-    230302 D29  .08-  .03+    

Ephemerides (geocentric):
Date (UTC) HH   RA             Dec           delta  r     elong  mag " sig PA
---- --------  ------------   ------------  ------ ------ -----  --- --------
2023 03 23 00  04 46 24.346   +12 46 04.46  2.6018 2.4528  70.3 20.9 5860  14
2023 03 23 01  04 46 27.329   +12 45 56.61  2.6023 2.4528  70.3 20.9 5879  14
2023 03 23 02  04 46 30.314   +12 45 48.76  2.6028 2.4527  70.3 20.9 5898  14
2023 03 23 03  04 46 33.300   +12 45 40.91  2.6033 2.4526  70.2 20.9 5917  14
2023 03 23 04  04 46 36.288   +12 45 33.07  2.6037 2.4526  70.2 20.9 5936  14
2023 03 23 05  04 46 39.277   +12 45 25.23  2.6042 2.4525  70.2 20.9 5956  14
2023 03 23 06  04 46 42.267   +12 45 17.39  2.6047 2.4525  70.1 20.9 5975  14
2023 03 23 07  04 46 45.259   +12 45 09.56  2.6052 2.4524  70.1 20.9 5994  14
2023 03 23 08  04 46 48.252   +12 45 01.73  2.6056 2.4523  70.1 20.9 6014  14
2023 03 23 09  04 46 51.246   +12 44 53.90  2.6061 2.4523  70.1 20.9 6033  14
2023 03 23 10  04 46 54.242   +12 44 46.08  2.6066 2.4522  70.0 20.9 6053  14
2023 03 23 11  04 46 57.239   +12 44 38.26  2.6071 2.4522  70.0 20.9 6072  14
2023 03 23 12  04 47 00.237   +12 44 30.44  2.6075 2.4521  70.0 20.9 6092  14
2023 03 23 13  04 47 03.236   +12 44 22.62  2.6080 2.4520  69.9 20.9 6111  14
2023 03 23 14  04 47 06.237   +12 44 14.81  2.6085 2.4520  69.9 20.9 6131  14
2023 03 23 15  04 47 09.239   +12 44 07.00  2.6090 2.4519  69.9 20.9 6150  14
2023 03 23 16  04 47 12.243   +12 43 59.19  2.6094 2.4519  69.9 20.9 6170  14
2023 03 23 17  04 47 15.247   +12 43 51.39  2.6099 2.4518  69.8 20.9 6190  14
2023 03 23 18  04 47 18.253   +12 43 43.59  2.6104 2.4518  69.8 20.9 6209  14
2023 03 23 19  04 47 21.261   +12 43 35.79  2.6109 2.4517  69.8 21.0 6229  14
2023 03 23 20  04 47 24.269   +12 43 28.00  2.6113 2.4516  69.7 21.0 6249  14
2023 03 23 21  04 47 27.279   +12 43 20.21  2.6118 2.4516  69.7 21.0 6269  14
2023 03 23 22  04 47 30.291   +12 43 12.42  2.6123 2.4515  69.7 21.0 6289  14
2023 03 23 23  04 47 33.303   +12 43 04.64  2.6128 2.4515  69.7 21.0 6309  14
2023 03 24 00  04 47 36.317   +12 42 56.85  2.6132 2.4514  69.6 21.0 6328  14
2023 03 24 01  04 47 39.332   +12 42 49.07  2.6137 2.4513  69.6 21.0 6348  14
2023 03 24 02  04 47 42.349   +12 42 41.30  2.6142 2.4513  69.6 21.0 6368  14
2023 03 24 03  04 47 45.366   +12 42 33.52  2.6147 2.4512  69.5 21.0 6388  14
2023 03 24 04  04 47 48.386   +12 42 25.75  2.6151 2.4512  69.5 21.0 6409  14
2023 03 24 05  04 47 51.406   +12 42 17.99  2.6156 2.4511  69.5 21.0 6429  14
2023 03 24 06  04 47 54.428   +12 42 10.22  2.6161 2.4510  69.5 21.0 6449  14
2023 03 24 07  04 47 57.450   +12 42 02.46  2.6165 2.4510  69.4 21.0 6469  14
2023 03 24 08  04 48 00.475   +12 41 54.70  2.6170 2.4509  69.4 21.0 6489  14
2023 03 24 09  04 48 03.500   +12 41 46.94  2.6175 2.4509  69.4 21.0 6509  14
2023 03 24 10  04 48 06.527   +12 41 39.19  2.6180 2.4508  69.3 21.0 6530  14
2023 03 24 11  04 48 09.555   +12 41 31.44  2.6184 2.4508  69.3 21.0 6550  14
2023 03 24 12  04 48 12.585   +12 41 23.69  2.6189 2.4507  69.3 21.0 6570  14
2023 03 24 13  04 48 15.615   +12 41 15.95  2.6194 2.4506  69.3 21.0 6591  14
2023 03 24 14  04 48 18.647   +12 41 08.20  2.6198 2.4506  69.2 21.0 6611  14
2023 03 24 15  04 48 21.681   +12 41 00.46  2.6203 2.4505  69.2 21.0 6631  14
2023 03 24 16  04 48 24.715   +12 40 52.73  2.6208 2.4505  69.2 21.0 6652  14
2023 03 24 17  04 48 27.751   +12 40 44.99  2.6213 2.4504  69.1 21.0 6672  14
2023 03 24 18  04 48 30.788   +12 40 37.26  2.6217 2.4503  69.1 21.0 6693  14
2023 03 24 19  04 48 33.827   +12 40 29.53  2.6222 2.4503  69.1 21.0 6714  14
2023 03 24 20  04 48 36.866   +12 40 21.80  2.6227 2.4502  69.1 21.0 6734  14
2023 03 24 21  04 48 39.907   +12 40 14.08  2.6231 2.4502  69.0 21.0 6755  14
2023 03 24 22  04 48 42.950   +12 40 06.36  2.6236 2.4501  69.0 21.0 6776  14
2023 03 24 23  04 48 45.993   +12 39 58.64  2.6241 2.4500  69.0 21.0 6796  14